| time (UTC) | temp F | wind direction | speed MPH | gust MPH | rain 1hr in | rain 24hr in | rain mn in | humidity % | barometer mb |
| 20260831130003 | 55 | 10 | 1.0 | 10.0 | 0.00 | 0.00 | 0.00 | 91 | 1021.5 |
| 20260831120003 | 55 | 42 | 2.0 | 8.0 | 0.00 | 0.00 | 0.00 | 90 | 1021.5 |
| 20260831110002 | 57 | 195 | 2.0 | 4.0 | 0.00 | 0.00 | 0.00 | 88 | 1020.7 |
| 20260831100003 | 58 | 174 | 1.0 | 9.0 | 0.00 | 0.00 | 0.00 | 84 | 1020.1 |
| 20260831090002 | 59 | 0 | 0.0 | 7.0 | 0.00 | 0.00 | 0.00 | 83 | 1019.9 |
| 20260831080003 | 59 | 357 | 2.0 | 4.0 | 0.00 | 0.00 | 0.00 | 84 | 1019.7 |
| 20260831070003 | 58 | 6 | 1.0 | 2.0 | 0.00 | 0.00 | 0.00 | 83 | 1019.5 |
| 20260831060003 | 57 | 343 | 0.0 | 4.0 | 0.00 | 0.00 | 0.00 | 80 | 1020.0 |
| 20260831050003 | 56 | 134 | 0.0 | 10.0 | 0.00 | 0.00 | 0.00 | 82 | 1020.3 |
| 20260831040003 | 58 | 188 | 2.0 | 5.0 | 0.00 | 0.00 | 0.00 | 72 | 1019.6 |
| 20260831030004 | 57 | 186 | 6.0 | 24.0 | 0.01 | 0.00 | 0.00 | 74 | 1020.0 |
| 20260831020003 | 56 | 70 | 4.0 | 23.0 | 0.17 | 0.00 | 0.00 | 88 | 1020.0 |
| 20260831010003 | 63 | 175 | 4.0 | 5.0 | 0.00 | 0.00 | 0.00 | 56 | 1016.6 |
| 20260831000002 | 64 | 181 | 2.0 | 7.0 | 0.00 | 0.00 | 0.00 | 54 | 1016.3 |
| 20260830230003 | 63 | 182 | 5.0 | 9.0 | 0.00 | 0.00 | 0.00 | 57 | 1016.8 |
| 20260830220003 | 62 | 181 | 3.0 | 8.0 | 0.00 | 0.00 | 0.00 | 60 | 1017.6 |
| 20260830210003 | 63 | 0 | 0.0 | 4.0 | 0.00 | 0.00 | 0.00 | 57 | 1018.1 |
| 20260830200003 | 63 | 173 | 1.0 | 1.0 | 0.00 | 0.00 | 0.00 | 52 | 1017.5 |
| 20260830190003 | 63 | 177 | 1.0 | 4.0 | 0.00 | 0.00 | 0.00 | 57 | 1017.7 |
| 20260830180003 | 64 | 165 | 6.0 | 7.0 | 0.00 | 0.00 | 0.00 | 68 | 1017.3 |
| 20260830170003 | 63 | 151 | 1.0 | 2.0 | 0.00 | 0.00 | 0.00 | 67 | 1017.4 |
| 20260830160003 | 64 | 358 | 2.0 | 3.0 | 0.00 | 0.00 | 0.00 | 67 | 1017.3 |
| 20260830150003 | 65 | 342 | 4.0 | 5.0 | 0.00 | 0.00 | 0.00 | 68 | 1016.4 |
| 20260830140003 | 67 | 332 | 1.0 | 5.0 | 0.00 | 0.00 | 0.00 | 62 | 1015.9 |